Helicity
46 36 29 28 41 54 60 61 60 58 41 62 57 63 43 42 56 51 57 67 56 62 50 16 14 31 66 68 81 105 99 98 123 110 105 136 156 161
68 55 36 37 44 56 65 65 69 66 87 71 74 63 51 36 58 42 54 28 68 56 61 33 39 46 62 65 73 99 117 126 136 127 153 161 154 135
77 70 50 43 62 72 80 78 77 76 88 53 58 61 39 39 43 44 46 44 57 63 53 63 56 45 43 61 74 80 106 125 125 136 149 162 175 179
85 78 56 70 58 66 84 76 77 77 86 63 53 59 56 50 52 48 48 53 55 74 59 57 62 70 60 65 80 96 100 103 121 146 166 168 157 148
98 93 76 72 69 79 80 83 89 91 92 85 67 67 56 56 51 49 52 56 65 74 67 76 78 81 86 87 86 89 89 84 101 109 116 118 123 131
98 98 89 90 82 81 87 83 87 87 87 89 82 77 76 74 74 68 64 72 66 70 75 86 100 112 97 85 85 87 78 84 93 95 103 114 119 111
85 89 91 96 106 97 117 99 105 109 107 104 104 97 88 79 74 103 89 91 75 91 81 75 76 77 82 79 79 74 72 99 112 128 131 124 114 111
79 82 86 100 107 101 96 98 121 126 116 128 114 105 82 93 90 83 86 94 104 81 94 89 94 85 85 85 93 74 86 100 118 122 114 103 101 93
71 77 84 104 104 105 95 87 95 98 103 133 115 112 113 112 109 104 97 98 104 122 98 98 95 92 97 98 82 65 97 91 105 115 111 96 80 74
59 67 74 82 94 105 111 111 112 108 115 146 130 120 131 136 132 137 137 121 125 112 109 120 103 100 104 99 91 99 95 77 87 93 95 83 72 67
62 64 66 73 87 102 95 104 104 107 138 131 124 157 158 135 137 152 151 168 167 138 121 162 125 118 111 110 110 107 108 84 69 78 82 76 66 62
65 66 68 57 81 82 88 92 97 90 117 131 151 145 148 153 140 137 149 177 190 193 143 160 138 131 127 122 125 108 93 75 64 56 59 56 52 54
74 78 81 79 72 76 69 91 88 110 127 139 152 166 183 182 174 144 157 186 205 199 156 128 128 126 144 139 116 100 94 83 68 60 50 40 30 32
77 83 85 89 89 95 105 89 90 99 136 156 166 178 192 196 182 190 189 170 180 173 149 140 184 164 161 134 112 109 99 87 77 71 67 51 37 25
87 92 94 99 102 103 84 94 105 127 145 164 169 174 190 188 218 244 242 218 210 189 201 200 154 169 157 159 148 125 125 101 88 85 77 76 72 47
70 73 77 77 71 78 97 102 122 135 140 148 147 135 165 212 217 228 236 223 194 183 185 199 167 149 162 145 136 139 120 142 114 92 82 77 77 42
63 66 83 81 81 87 98 103 110 129 147 157 173 181 207 174 183 223 229 234 208 196 176 191 169 122 155 162 176 126 140 129 100 68 82 56 74 54
63 76 72 63 49 55 70 84 99 87 108 126 165 182 191 203 203 245 234 232 211 212 196 194 165 169 155 155 117 150 157 80 74 75 62 43 65 63
52 63 70 60 49 35 38 72 95 113 105 100 94 113 156 173 182 203 219 214 188 191 185 204 176 173 138 129 127 65 85 73 64 72 55 53 60 75
62 63 68 70 64 59 62 58 72 90 95 90 91 83 92 129 149 159 181 190 185 190 175 183 181 157 144 134 119 83 41 61 65 54 60 52 44 20
89 79 73 76 81 80 73 68 63 70 78 88 95 96 94 105 117 127 148 143 151 172 155 151 156 136 165 129 86 71 53 22 28 49 52 43 41 51
101 110 95 84 84 77 75 68 64 58 60 64 76 95 96 88 95 104 120 123 132 146 141 160 173 155 131 119 82 65 54 52 32 11 -10 24 67 65
82 118 113 90 81 82 76 58 50 40 37 38 59 81 93 91 85 94 106 107 102 135 157 178 163 153 118 93 63 50 39 51 47 50 32 13 11 60
Wind_Speed
39 42 47 47 45 44 44 45 47 51 57 41 46 37 47 49 45 44 44 46 45 45 46 46 46 47 48 45 42 38 37 32 28 25 24 25 27 29
33 42 50 52 50 47 44 44 42 45 43 39 43 55 55 50 44 45 45 43 46 46 46 43 42 42 40 40 40 37 34 31 30 29 30 30 30 29
40 39 48 51 49 46 44 45 45 44 48 56 52 53 55 52 48 46 45 43 41 45 44 42 40 39 38 35 33 33 33 33 31 30 30 30 30 31
43 46 50 51 52 49 47 46 46 46 49 56 55 52 53 51 53 53 48 44 42 42 42 41 39 35 33 33 35 34 31 28 28 30 30 30 32 34
45 45 48 49 50 48 47 48 48 49 48 52 58 55 54 54 55 52 50 47 44 43 43 42 38 36 34 32 33 34 33 29 29 29 31 34 35 35
48 50 52 51 51 52 51 52 53 53 53 55 58 59 59 56 55 57 55 49 49 44 43 41 39 36 35 35 35 35 33 30 30 31 33 34 37 41
54 53 52 51 51 52 53 54 53 54 55 57 59 59 60 59 58 54 56 55 53 49 47 44 41 39 39 38 40 38 32 32 34 36 39 40 42 44
58 56 53 51 50 47 47 46 47 49 52 54 58 60 60 57 57 57 58 58 60 45 47 46 42 43 42 41 41 38 34 36 38 41 44 46 45 46
60 60 59 54 51 51 49 45 45 44 46 53 57 58 60 54 54 55 53 52 52 48 48 51 43 46 42 42 40 38 35 38 41 45 47 48 50 51
59 59 58 58 54 52 52 52 52 50 49 49 53 56 55 55 53 54 55 54 51 49 46 55 46 48 44 44 41 42 38 40 42 46 50 51 52 54
59 58 58 59 58 55 56 57 59 58 55 53 53 55 56 57 54 55 56 57 59 54 46 53 51 53 51 49 44 42 41 43 45 50 54 55 56 58
60 58 55 57 59 58 58 61 65 65 61 61 60 59 58 58 54 52 56 60 60 63 49 55 55 52 58 48 47 43 43 44 46 51 55 56 55 56
65 64 61 59 61 61 59 61 65 65 66 63 63 59 55 53 51 48 48 51 58 60 48 45 51 50 51 53 47 43 45 48 48 49 52 53 56 58
67 65 64 63 65 64 64 64 65 64 64 62 61 61 56 52 48 45 45 46 47 49 47 44 52 51 53 56 56 49 47 47 46 50 50 54 53 59
66 67 71 71 69 66 64 64 64 62 60 63 62 60 51 49 45 45 44 44 46 47 45 44 48 51 51 55 58 53 55 50 46 51 51 52 62 62
64 65 65 66 67 67 67 64 61 58 58 59 56 53 48 45 47 43 46 47 52 52 43 42 45 48 55 50 57 59 52 52 48 51 59 62 62 60
66 63 64 64 67 67 64 62 59 57 59 57 53 51 48 46 44 39 40 43 47 48 46 43 41 43 49 52 53 51 48 50 52 57 58 58 62 62
64 64 64 63 63 64 64 62 58 59 55 52 48 45 44 43 42 39 40 41 44 42 42 38 40 43 49 46 37 45 47 53 54 52 53 61 65 63
64 65 65 64 63 62 60 58 56 53 50 48 45 42 39 37 36 37 37 39 45 44 41 30 34 40 45 52 45 33 44 49 49 52 54 55 63 70
65 67 66 63 62 61 58 57 55 53 50 46 43 38 34 30 29 28 27 30 31 37 36 29 22 21 32 44 45 42 34 45 51 54 57 60 62 66
65 64 63 61 59 57 56 55 53 51 48 45 40 34 28 26 28 26 25 21 24 27 32 30 26 21 27 37 44 45 43 33 40 48 51 59 63 59
59 58 58 56 55 54 53 52 51 51 49 45 39 34 33 29 25 30 30 27 19 27 33 33 25 22 26 27 34 41 46 45 46 45 32 26 45 48
58 54 55 56 55 53 53 54 53 55 52 49 42 37 32 31 25 23 30 33 30 20 24 29 28 28 30 29 32 39 42 48 48 50 47 35 23 10
Wind_Direction
333 323 317 318 321 324 326 327 330 333 327 341 331 342 334 336 343 347 353 357 1 7 12 18 24 25 14 15 19 14 11 7 354 344 343 342 333 322
335 324 312 311 314 318 323 325 327 325 331 337 332 322 325 330 336 338 343 349 352 355 0 6 12 16 21 22 13 7 7 4 350 343 336 333 332 329
323 323 314 309 312 316 319 321 322 321 320 321 324 325 322 324 328 332 335 340 345 348 353 359 2 5 9 15 21 21 14 1 355 350 343 339 335 332
316 314 312 310 309 311 315 316 317 318 317 317 320 323 323 323 323 324 327 331 334 338 342 346 352 359 2 5 3 3 9 15 10 357 350 344 338 334
311 311 310 310 310 311 313 315 316 316 315 314 314 317 319 320 320 321 322 324 326 328 331 334 339 342 345 349 351 352 352 357 358 356 351 341 336 332
306 305 304 304 305 307 308 310 311 312 313 313 313 313 315 317 318 316 317 319 318 321 322 324 326 331 332 332 334 335 338 340 344 344 343 339 333 329
305 304 303 302 302 303 305 307 308 309 310 310 311 312 313 314 314 317 316 316 315 315 315 315 316 316 317 319 318 319 325 327 327 329 328 327 326 323
306 306 306 305 303 302 302 303 306 308 309 310 311 311 312 313 314 314 313 314 313 319 315 312 313 311 311 312 313 313 314 316 317 319 318 318 320 320
306 306 306 307 306 306 305 303 303 302 303 308 308 310 312 314 315 314 314 313 312 316 315 311 311 308 308 309 308 307 308 310 312 313 315 315 315 315
308 308 307 307 308 308 307 306 304 304 303 302 304 308 310 312 313 313 313 312 311 309 310 307 310 307 307 305 303 303 302 305 307 309 311 312 312 312
311 310 309 308 308 308 306 306 305 304 305 300 300 304 306 307 308 309 307 306 306 306 306 305 305 305 304 302 302 299 300 302 303 306 309 309 310 310
313 313 313 310 309 309 306 306 305 305 305 305 304 301 301 303 302 301 303 301 301 303 305 300 302 303 301 304 300 300 300 301 302 304 306 307 309 310
311 312 313 313 312 310 308 306 305 308 308 306 305 305 303 302 302 300 301 301 298 298 307 305 305 304 302 302 305 303 300 301 303 304 305 306 307 308
310 312 314 314 313 311 310 309 309 307 307 307 305 303 302 301 300 300 302 302 303 301 303 302 302 299 299 299 299 302 303 303 305 305 308 309 310 310
311 311 311 311 311 311 311 312 312 310 307 304 304 304 303 302 302 302 302 302 303 302 301 299 299 301 298 297 298 301 300 303 306 306 309 309 307 311
314 313 313 313 313 312 312 313 313 312 309 306 305 308 308 305 301 299 297 298 299 299 298 299 297 297 297 299 295 296 301 301 306 305 305 306 308 309
317 316 316 316 314 314 315 316 317 314 308 306 304 304 304 305 303 301 300 299 297 297 296 298 298 298 299 297 297 298 300 301 305 306 306 307 307 309
317 316 316 318 319 320 319 318 316 315 314 313 309 305 303 302 301 301 299 297 296 297 297 298 297 301 300 300 293 298 302 302 305 306 306 304 305 308
316 316 315 317 318 320 321 320 319 321 322 320 317 314 311 309 305 301 298 296 295 295 296 300 296 294 295 296 305 298 302 305 307 306 304 303 304 302
313 314 314 314 314 316 319 321 321 321 321 322 321 321 320 317 316 312 307 298 294 294 293 295 295 291 296 300 304 310 305 305 304 303 301 301 304 307
309 312 313 312 313 315 316 317 320 322 322 322 322 324 324 323 319 316 316 310 300 291 290 290 291 298 307 309 305 308 311 312 308 305 306 303 302 307
309 309 312 313 313 314 315 316 316 316 318 322 328 330 328 327 326 319 317 319 313 304 295 298 302 303 306 308 308 309 310 309 306 310 316 315 316 322
308 309 309 310 310 311 310 310 307 303 306 313 323 332 337 334 332 329 320 316 318 319 307 299 300 300 302 306 311 310 311 307 308 306 312 325 334 246